Location: Hains Lake
(37.8540°N, 99.8578°W)
Time: 16:52:19
(UTC+00:00)

Okean O Rocket - Pass Details

Date: 11 December 2019
Orbit: 624 x 644 km, 98.2° (Epoch: 20 January)

Event Time Altitude Azimuth Distance (km) Brightness Sun altitude
Rises 12:46:57 0° 4° (N) 2,929 4.8 -11.2°
Reaches altitude 10° 12:49:15 10° 356° (N) 2,021 4.0 -10.8°
Maximum altitude 12:53:19 39° 288° (WNW) 963 2.1 -10.0°
Drops below altitude 10° 12:57:24 10° 220° (SW) 2,019 4.0 -9.3°
Sets 12:59:42 0° 213° (SSW) 2,927 4.9 -8.9°
